LOT3 EPWA-KORD

Flight info

Callsign LOT3
Flight time N/A
Altitude 38000
Route WA801 DCT WA802 DCT MAKUS DCT LOLSI DCT DIBLO DCT INDIG DCT BINKA DCT KOSEB DCT RASVI DCT GUNPA/M084F380 DCT 63N010W 64N020W/M085F400 64N030W 64N040W 62N050W DCT SAVRY/N0480F400 DCT LAKES DCT MCKEE DCT SSM DCT JODEE DCT GAULT DCT OBSTR DCT CSTLO DCT VIO DCT WLTER DCT RHIVR DCT PAITN DCT WYNDE DCT FIYER DCT ERNNY DCT PAPPI DCT TUBEZ DCT MONKZ DCT JORJO DCT POSSM
Aircraft B788/H-SDE1E2E3FGHIJ2J3J4J5M1RWXY/LB1D1

Departure

Time 2026-05-01 07:52
Airport Warsaw Chopin Airport (EPWA)

Arrival

Time N/A
Airport Chicago O'Hare International Airport (KORD)
Time Latitude Longitude Altitude Speed Heading
2026-05-01 07:23 52.17331 20.96832 344 ft 0 kts 62°
2026-05-01 07:30 52.17329 20.96828 344 ft 3 kts 62°
2026-05-01 07:30 52.17320 20.96801 360 ft 3 kts 62°
2026-05-01 07:30 52.17311 20.96774 355 ft 3 kts 82°
2026-05-01 07:30 52.17310 20.96742 355 ft 3 kts 108°
2026-05-01 07:31 52.17317 20.96713 355 ft 3 kts 129°
2026-05-01 07:31 52.17341 20.96683 355 ft 2 kts 153°
2026-05-01 07:32 52.17349 20.96676 355 ft 0 kts 153°
2026-05-01 07:32 52.17350 20.96675 355 ft 2 kts 153°
2026-05-01 07:33 52.17356 20.96670 355 ft 0 kts 153°
2026-05-01 07:35 52.17354 20.96671 355 ft 1 kts 153°
2026-05-01 07:35 52.17348 20.96677 355 ft 1 kts 153°
2026-05-01 07:35 52.17336 20.96686 355 ft 2 kts 153°
2026-05-01 07:35 52.17320 20.96700 355 ft 3 kts 153°
2026-05-01 07:36 52.17300 20.96716 355 ft 4 kts 153°
2026-05-01 07:36 52.17274 20.96738 355 ft 5 kts 152°
2026-05-01 07:36 52.17240 20.96767 347 ft 6 kts 152°
2026-05-01 07:36 52.17205 20.96797 352 ft 5 kts 153°
2026-05-01 07:37 52.17166 20.96777 354 ft 3 kts 222°
2026-05-01 07:37 52.17151 20.96743 352 ft 4 kts 236°
2026-05-01 07:37 52.17135 20.96699 355 ft 5 kts 239°
2026-05-01 07:38 52.17109 20.96671 349 ft 4 kts 198°
2026-05-01 07:38 52.17081 20.96675 352 ft 4 kts 169°
2026-05-01 07:38 52.17033 20.96708 353 ft 6 kts 153°
2026-05-01 07:39 52.16964 20.96768 355 ft 9 kts 152°
2026-05-01 07:40 52.16906 20.96819 353 ft 10 kts 152°
2026-05-01 07:40 52.16903 20.96822 355 ft 10 kts 152°
2026-05-01 07:40 52.16843 20.96873 353 ft 11 kts 152°
2026-05-01 07:41 52.16773 20.96934 355 ft 12 kts 152°
2026-05-01 07:41 52.16699 20.96999 353 ft 12 kts 153°
2026-05-01 07:41 52.16536 20.97141 354 ft 14 kts 152°
2026-05-01 07:42 52.16447 20.97220 354 ft 15 kts 151°
2026-05-01 07:42 52.16353 20.97302 352 ft 15 kts 152°
2026-05-01 07:42 52.16263 20.97381 353 ft 15 kts 152°
2026-05-01 07:42 52.16171 20.97461 355 ft 15 kts 152°
2026-05-01 07:43 52.16121 20.97505 354 ft 15 kts 152°
2026-05-01 07:43 52.16107 20.97517 355 ft 15 kts 152°
2026-05-01 07:44 52.15915 20.97685 353 ft 16 kts 152°
2026-05-01 07:44 52.15713 20.97862 350 ft 17 kts 152°
2026-05-01 07:45 52.15609 20.97952 353 ft 17 kts 152°
2026-05-01 07:45 52.15504 20.98044 353 ft 17 kts 152°
2026-05-01 07:45 52.15398 20.98137 352 ft 17 kts 152°
2026-05-01 07:45 52.15290 20.98230 354 ft 18 kts 152°
2026-05-01 07:46 52.15192 20.98317 353 ft 18 kts 152°
2026-05-01 07:46 52.15097 20.98393 352 ft 7 kts 163°
2026-05-01 07:47 52.15060 20.98373 349 ft 5 kts 219°
2026-05-01 07:47 52.15049 20.98349 355 ft 0 kts 234°
2026-05-01 07:48 52.15046 20.98342 355 ft 2 kts 235°
2026-05-01 07:49 52.15035 20.98313 351 ft 4 kts 239°
2026-05-01 07:49 52.14992 20.98184 353 ft 9 kts 242°
2026-05-01 07:49 52.14985 20.98130 348 ft 4 kts 281°
2026-05-01 07:50 52.15003 20.98095 352 ft 5 kts 319°
2026-05-01 07:50 52.15062 20.98035 352 ft 0 kts 331°
2026-05-01 07:50 52.15073 20.98025 351 ft 8 kts 331°
2026-05-01 07:51 52.15208 20.97906 353 ft 47 kts 332°
2026-05-01 07:51 52.15700 20.97476 354 ft 112 kts 331°
2026-05-01 07:51 52.16560 20.96724 355 ft 166 kts 332°
2026-05-01 07:52 52.17740 20.95677 862 ft 185 kts 329°
2026-05-01 07:52 52.18874 20.94669 1911 ft 182 kts 333°
2026-05-01 07:52 52.20043 20.93686 2469 ft 201 kts 333°
2026-05-01 07:53 52.22772 20.91277 3234 ft 248 kts 326°
2026-05-01 07:53 52.23762 20.88900 3848 ft 263 kts 282°
2026-05-01 07:53 52.23588 20.86051 5250 ft 251 kts 252°
2026-05-01 07:53 52.22765 20.83529 6079 ft 259 kts 240°
2026-05-01 07:54 52.20890 20.78012 7255 ft 284 kts 246°
2026-05-01 07:55 52.18801 20.68804 9468 ft 297 kts 258°
2026-05-01 07:55 52.17560 20.62226 10665 ft 318 kts 256°
2026-05-01 07:56 52.15470 20.50642 11408 ft 374 kts 265°
2026-05-01 07:56 52.15579 20.42225 12751 ft 376 kts 279°
2026-05-01 07:57 52.15779 20.37965 13424 ft 380 kts 279°
2026-05-01 07:57 52.16136 20.29272 14669 ft 389 kts 279°
2026-05-01 07:58 52.16485 20.20375 15793 ft 398 kts 279°
2026-05-01 07:58 52.16844 20.11277 16911 ft 407 kts 279°
2026-05-01 07:59 52.17197 20.01974 17976 ft 415 kts 279°
2026-05-01 07:59 52.17552 19.92509 18965 ft 424 kts 279°
2026-05-01 08:00 52.16485 19.72915 20777 ft 444 kts 266°
2026-05-01 08:01 52.15129 19.57854 22088 ft 452 kts 267°
2026-05-01 08:01 52.14666 19.52775 22496 ft 455 kts 267°
2026-05-01 08:01 52.14203 19.47732 22890 ft 458 kts 267°
2026-05-01 08:02 52.13253 19.37416 23681 ft 463 kts 267°
2026-05-01 08:02 52.12770 19.32216 24025 ft 466 kts 266°
2026-05-01 08:03 52.11787 19.21735 24650 ft 471 kts 266°
2026-05-01 08:03 52.11289 19.16462 24960 ft 473 kts 266°
2026-05-01 08:03 52.10280 19.05846 25555 ft 477 kts 266°
2026-05-01 08:04 52.09254 18.95151 26138 ft 480 kts 266°
2026-05-01 08:04 52.08210 18.84395 26745 ft 484 kts 266°
2026-05-01 08:05 52.07148 18.73551 27339 ft 488 kts 266°
2026-05-01 08:05 52.06610 18.68096 27645 ft 490 kts 266°
2026-05-01 08:05 52.06067 18.62621 27930 ft 492 kts 265°
2026-05-01 08:06 52.04966 18.51600 28524 ft 496 kts 265°
2026-05-01 08:06 52.03847 18.40494 29101 ft 500 kts 265°
2026-05-01 08:07 52.02709 18.29336 29752 ft 503 kts 265°
2026-05-01 08:07 52.01552 18.18078 30382 ft 508 kts 265°
2026-05-01 08:08 52.00997 18.12421 30640 ft 507 kts 269°
2026-05-01 08:08 52.01496 18.01206 31174 ft 494 kts 291°
2026-05-01 08:09 52.04248 17.91236 31681 ft 479 kts 311°
2026-05-01 08:09 52.06278 17.86988 31931 ft 476 kts 315°
2026-05-01 08:09 52.08375 17.82809 32199 ft 478 kts 315°
2026-05-01 08:10 52.12618 17.74438 32732 ft 482 kts 315°
2026-05-01 08:10 52.16844 17.66022 33342 ft 483 kts 315°
2026-05-01 08:11 52.21089 17.57561 34154 ft 481 kts 315°
2026-05-01 08:11 52.25313 17.49112 34821 ft 480 kts 314°
2026-05-01 08:12 52.29519 17.40665 35468 ft 479 kts 314°
2026-05-01 08:12 52.31617 17.36443 35777 ft 478 kts 314°
2026-05-01 08:12 52.35803 17.27996 36417 ft 477 kts 314°
2026-05-01 08:13 52.37891 17.23774 36731 ft 477 kts 314°
2026-05-01 08:13 52.39975 17.19552 37026 ft 477 kts 314°
2026-05-01 08:13 52.44133 17.11107 37608 ft 475 kts 313°
2026-05-01 08:14 52.46202 17.06893 37947 ft 474 kts 313°
2026-05-01 08:14 52.48268 17.02680 38216 ft 474 kts 313°
2026-05-01 08:14 52.50334 16.98459 38404 ft 476 kts 313°
2026-05-01 08:14 52.52418 16.94198 38395 ft 479 kts 313°
2026-05-01 08:15 52.58613 16.81472 38389 ft 473 kts 313°
2026-05-01 08:16 52.62716 16.73014 38369 ft 473 kts 312°
2026-05-01 08:16 52.66803 16.64557 38397 ft 472 kts 312°
2026-05-01 08:17 52.70856 16.56146 38394 ft 472 kts 312°
2026-05-01 08:17 52.74941 16.47636 38396 ft 473 kts 312°
2026-05-01 08:18 52.79028 16.39097 38400 ft 474 kts 312°
2026-05-01 08:19 52.87204 16.21921 38413 ft 476 kts 311°
2026-05-01 08:19 52.91279 16.13318 38409 ft 474 kts 311°
2026-05-01 08:20 52.95338 16.04719 38411 ft 472 kts 311°
2026-05-01 08:20 52.99380 15.96128 38408 ft 472 kts 311°
2026-05-01 08:21 53.03421 15.87511 38403 ft 473 kts 310°
2026-05-01 08:21 53.07458 15.78868 38404 ft 474 kts 310°
2026-05-01 08:22 53.11495 15.70199 38410 ft 474 kts 310°
2026-05-01 08:22 53.15529 15.61507 38411 ft 474 kts 310°
2026-05-01 08:23 53.19560 15.52789 38409 ft 475 kts 310°
2026-05-01 08:23 53.23587 15.44052 38412 ft 474 kts 310°
2026-05-01 08:24 53.27599 15.35315 38411 ft 474 kts 310°
2026-05-01 08:24 53.30924 15.28052 38410 ft 473 kts 310°
2026-05-01 08:25 53.35587 15.17832 38409 ft 472 kts 309°
2026-05-01 08:25 53.38891 15.10563 38409 ft 472 kts 309°
2026-05-01 08:26 53.42860 15.01806 38405 ft 472 kts 309°
2026-05-01 08:26 53.46832 14.93010 38400 ft 474 kts 309°
2026-05-01 08:27 53.50811 14.84169 38407 ft 475 kts 309°
2026-05-01 08:27 53.54795 14.75286 38408 ft 476 kts 309°
2026-05-01 08:28 53.58765 14.66401 38408 ft 474 kts 309°
2026-05-01 08:28 53.62709 14.57542 38407 ft 472 kts 309°
2026-05-01 08:29 53.66636 14.48692 38406 ft 471 kts 309°
2026-05-01 08:29 53.70559 14.39821 38419 ft 472 kts 309°
2026-05-01 08:30 53.74485 14.30910 38424 ft 473 kts 309°
2026-05-01 08:30 53.78934 14.22811 38414 ft 471 kts 318°
2026-05-01 08:31 53.83678 14.15289 38434 ft 471 kts 318°
2026-05-01 08:31 53.88439 14.07674 38437 ft 471 kts 318°
2026-05-01 08:32 53.93234 13.99993 38436 ft 471 kts 318°
2026-05-01 08:32 53.97961 13.92395 38435 ft 470 kts 318°
2026-05-01 08:33 54.02700 13.84748 38432 ft 469 kts 318°
2026-05-01 08:33 54.07424 13.77105 38422 ft 469 kts 317°
2026-05-01 08:34 54.12165 13.69406 38426 ft 472 kts 317°
2026-05-01 08:34 54.16916 13.61667 38429 ft 472 kts 317°
2026-05-01 08:35 54.21654 13.53922 38430 ft 471 kts 317°
2026-05-01 08:35 54.26377 13.46177 38439 ft 470 kts 317°
2026-05-01 08:36 54.31085 13.38429 38420 ft 469 kts 317°
2026-05-01 08:36 54.35791 13.30660 38424 ft 471 kts 317°
2026-05-01 08:37 54.40511 13.22841 38431 ft 473 kts 317°
2026-05-01 08:37 54.45238 13.14982 38436 ft 472 kts 317°
2026-05-01 08:38 54.49949 13.07126 38432 ft 471 kts 317°
2026-05-01 08:38 54.54648 12.99262 38430 ft 470 kts 317°
2026-05-01 08:39 54.59336 12.91390 38423 ft 471 kts 316°
2026-05-01 08:39 54.64027 12.83485 38424 ft 471 kts 316°
2026-05-01 08:40 54.71055 12.71595 38420 ft 472 kts 316°
2026-05-01 08:40 54.75736 12.63639 38421 ft 472 kts 316°
2026-05-01 08:41 54.80479 12.55795 38416 ft 471 kts 317°
2026-05-01 08:41 54.85023 12.48156 38411 ft 473 kts 317°
2026-05-01 08:42 54.89804 12.40306 38418 ft 473 kts 317°
2026-05-01 08:42 54.94544 12.32401 38420 ft 471 kts 317°
2026-05-01 08:43 54.99207 12.24636 38418 ft 470 kts 317°
2026-05-01 08:43 55.03988 12.16636 38420 ft 471 kts 317°
2026-05-01 08:44 55.08711 12.08706 38437 ft 472 kts 316°
2026-05-01 08:44 55.13448 12.00727 38434 ft 474 kts 316°
2026-05-01 08:45 55.15450 11.97344 38440 ft 474 kts 316°
2026-05-01 08:45 55.15468 11.97313 38438 ft 474 kts 316°
2026-05-01 08:46 55.20244 11.89229 38435 ft 473 kts 316°
2026-05-01 08:46 55.24956 11.81223 38438 ft 471 kts 316°
2026-05-01 08:47 55.29103 11.74154 38440 ft 470 kts 316°
2026-05-01 08:47 55.32337 11.68627 38430 ft 470 kts 316°
2026-05-01 08:48 55.37026 11.60588 38432 ft 473 kts 316°
2026-05-01 08:48 55.41733 11.52490 38435 ft 473 kts 316°
2026-05-01 08:49 55.46435 11.44372 38433 ft 473 kts 316°
2026-05-01 08:49 55.51129 11.36240 38434 ft 473 kts 316°
2026-05-01 08:50 55.55816 11.28092 38434 ft 473 kts 316°
2026-05-01 08:50 55.60495 11.19929 38430 ft 473 kts 315°
2026-05-01 08:51 55.65168 11.11745 38430 ft 472 kts 315°
2026-05-01 08:51 55.69833 11.03547 38424 ft 472 kts 315°
2026-05-01 08:52 55.74486 10.95342 38423 ft 472 kts 315°
2026-05-01 08:52 55.79131 10.87121 38428 ft 471 kts 315°
2026-05-01 08:53 55.83769 10.78884 38416 ft 472 kts 315°
2026-05-01 08:53 55.88401 10.70629 38419 ft 470 kts 315°
2026-05-01 08:54 55.93024 10.62357 38420 ft 471 kts 315°
2026-05-01 08:54 55.97646 10.54061 38418 ft 471 kts 315°
2026-05-01 08:55 56.02260 10.45748 38416 ft 471 kts 315°
2026-05-01 08:55 56.06870 10.37411 38418 ft 471 kts 315°
2026-05-01 08:56 56.11475 10.29053 38402 ft 471 kts 315°
2026-05-01 08:56 56.16069 10.20687 38410 ft 470 kts 315°
2026-05-01 08:57 56.20650 10.12313 38411 ft 470 kts 315°
2026-05-01 08:57 56.25230 10.03910 38408 ft 471 kts 315°
2026-05-01 08:58 56.29799 9.95497 38401 ft 468 kts 315°
2026-05-01 08:58 56.34342 9.87101 38394 ft 468 kts 315°
2026-05-01 08:59 56.38891 9.78663 38394 ft 471 kts 314°
2026-05-01 08:59 56.43434 9.70207 38389 ft 474 kts 314°
2026-05-01 09:00 56.48005 9.61669 38403 ft 470 kts 314°
2026-05-01 09:00 56.52539 9.53163 38394 ft 471 kts 314°
2026-05-01 09:01 56.57095 9.44589 38392 ft 471 kts 314°
2026-05-01 09:01 56.61634 9.36013 38394 ft 472 kts 314°
2026-05-01 09:02 56.66181 9.27393 38393 ft 473 kts 313°
2026-05-01 09:02 56.70710 9.18771 38392 ft 471 kts 313°
2026-05-01 09:03 56.75240 9.10118 38391 ft 474 kts 313°
2026-05-01 09:03 56.78274 9.04304 38394 ft 472 kts 313°
2026-05-01 09:04 56.82750 8.95699 38393 ft 471 kts 313°
2026-05-01 09:04 56.87240 8.87036 38378 ft 469 kts 313°
2026-05-01 09:05 56.91721 8.78358 38387 ft 470 kts 312°
2026-05-01 09:05 56.96211 8.69627 38392 ft 471 kts 312°
2026-05-01 09:06 57.00701 8.60868 38392 ft 471 kts 312°
2026-05-01 09:06 57.05185 8.52083 38373 ft 472 kts 312°
2026-05-01 09:07 57.09669 8.43268 38387 ft 472 kts 312°
2026-05-01 09:07 57.14137 8.34450 38376 ft 469 kts 311°
2026-05-01 09:08 57.18546 8.25717 38372 ft 468 kts 311°
2026-05-01 09:08 57.22981 8.16895 38370 ft 469 kts 311°
2026-05-01 09:09 57.27420 8.08034 38372 ft 470 kts 311°
2026-05-01 09:09 57.32017 7.99414 38374 ft 471 kts 313°
2026-05-01 09:10 57.36648 7.90825 38371 ft 471 kts 313°
2026-05-01 09:10 57.41311 7.82281 38389 ft 471 kts 313°
2026-05-01 09:11 57.45944 7.73688 38376 ft 470 kts 313°
2026-05-01 09:11 57.49784 7.66567 38369 ft 469 kts 313°
2026-05-01 09:12 57.54399 7.57972 38364 ft 469 kts 312°
2026-05-01 09:12 57.59000 7.49368 38363 ft 469 kts 312°
2026-05-01 09:13 57.63597 7.40743 38356 ft 469 kts 312°
2026-05-01 09:13 57.68188 7.32093 38357 ft 469 kts 312°
2026-05-01 09:14 57.72775 7.23420 38371 ft 470 kts 311°
2026-05-01 09:14 57.77356 7.14722 38367 ft 468 kts 311°
2026-05-01 09:15 57.81920 7.06025 38370 ft 468 kts 311°
2026-05-01 09:15 57.86480 6.97300 38368 ft 468 kts 311°
2026-05-01 09:16 57.91041 6.88542 38369 ft 469 kts 311°
2026-05-01 09:17 57.97866 6.75371 38360 ft 469 kts 311°
2026-05-01 09:17 58.04699 6.62109 38351 ft 470 kts 311°
2026-05-01 09:18 58.11489 6.48853 38351 ft 467 kts 310°
2026-05-01 09:19 58.18247 6.35581 38340 ft 467 kts 310°
2026-05-01 09:20 58.24961 6.22320 38336 ft 467 kts 310°
2026-05-01 09:21 58.33971 6.04400 38358 ft 471 kts 310°
2026-05-01 09:21 58.40763 5.90799 38347 ft 473 kts 310°
2026-05-01 09:22 58.49799 5.72578 38335 ft 471 kts 310°
2026-05-01 09:23 58.56521 5.58926 38331 ft 469 kts 310°
2026-05-01 09:24 58.63219 5.45241 38320 ft 470 kts 310°
2026-05-01 09:25 58.72173 5.26819 38314 ft 473 kts 309°
2026-05-01 09:26 58.78886 5.12911 38314 ft 472 kts 309°
2026-05-01 09:28 58.82896 5.04562 38309 ft 470 kts 309°
2026-05-01 09:29 58.89557 4.90622 38300 ft 474 kts 309°
2026-05-01 09:30 58.96256 4.76521 38287 ft 474 kts 309°
2026-05-01 09:30 59.02912 4.62422 38287 ft 471 kts 308°
2026-05-01 09:31 59.07325 4.53023 38264 ft 471 kts 308°
2026-05-01 09:32 59.13955 4.38834 38281 ft 473 kts 308°
2026-05-01 09:32 59.20586 4.24555 38267 ft 474 kts 308°
2026-05-01 09:33 59.24999 4.15002 38271 ft 474 kts 308°
2026-05-01 09:34 59.31592 4.00655 38251 ft 471 kts 308°
2026-05-01 09:34 59.38136 3.86325 38254 ft 470 kts 308°
2026-05-01 09:35 59.44690 3.71881 38241 ft 474 kts 308°
2026-05-01 09:36 59.49068 3.62184 38233 ft 474 kts 307°
2026-05-01 09:36 59.53429 3.52483 38233 ft 472 kts 307°
2026-05-01 09:37 59.57744 3.42842 38229 ft 471 kts 307°
2026-05-01 09:37 59.64214 3.28310 38212 ft 469 kts 307°
2026-05-01 09:38 59.70672 3.13715 38213 ft 471 kts 307°
2026-05-01 09:39 59.76442 3.00594 38214 ft 472 kts 307°
2026-05-01 09:39 59.80748 2.90754 38208 ft 472 kts 307°
2026-05-01 09:40 59.87187 2.75961 38186 ft 471 kts 307°
2026-05-01 09:41 59.91417 2.66193 38188 ft 467 kts 307°
2026-05-01 09:41 59.97766 2.51445 38186 ft 467 kts 307°
2026-05-01 09:42 60.01993 2.41578 38190 ft 468 kts 306°
2026-05-01 09:43 60.10257 2.22160 38178 ft 468 kts 306°
2026-05-01 09:43 60.14473 2.12190 38172 ft 468 kts 306°
2026-05-01 09:44 60.20775 1.97210 38162 ft 467 kts 306°
2026-05-01 09:45 60.24951 1.87224 38166 ft 466 kts 306°
2026-05-01 09:45 60.31163 1.72293 38153 ft 466 kts 306°
2026-05-01 09:46 60.35318 1.62251 38152 ft 466 kts 306°
2026-05-01 09:46 60.39442 1.52243 38145 ft 466 kts 306°
2026-05-01 09:47 60.43587 1.42137 38143 ft 467 kts 305°
2026-05-01 09:47 60.47730 1.31995 38135 ft 467 kts 305°
2026-05-01 09:48 60.51835 1.21900 38131 ft 462 kts 304°
2026-05-01 09:48 60.55921 1.11801 38130 ft 463 kts 304°
2026-05-01 09:49 60.60009 1.01662 38127 ft 464 kts 304°
2026-05-01 09:49 60.64095 0.91479 38121 ft 465 kts 304°
2026-05-01 09:50 60.68178 0.81258 38117 ft 465 kts 304°
2026-05-01 09:50 60.72258 0.71000 38119 ft 466 kts 304°
2026-05-01 09:51 60.76339 0.60694 38092 ft 466 kts 304°
2026-05-01 09:51 60.80391 0.50416 38095 ft 462 kts 303°
2026-05-01 09:52 60.84415 0.40159 38093 ft 462 kts 303°
2026-05-01 09:52 60.88435 0.29867 38087 ft 463 kts 303°
2026-05-01 09:53 60.92457 0.19527 38084 ft 464 kts 303°
2026-05-01 09:53 60.96480 0.09138 38087 ft 464 kts 303°
2026-05-01 09:54 61.00335 -0.01479 38138 ft 459 kts 295°
2026-05-01 09:54 61.03271 -0.13021 38086 ft 457 kts 292°
2026-05-01 09:55 61.06183 -0.24684 38086 ft 456 kts 292°
2026-05-01 09:55 61.09066 -0.36300 38086 ft 453 kts 292°
2026-05-01 09:56 61.11932 -0.47907 38077 ft 454 kts 291°
2026-05-01 09:56 61.14795 -0.59562 38076 ft 455 kts 291°
2026-05-01 09:57 61.17654 -0.71262 38083 ft 456 kts 291°
2026-05-01 09:57 61.20509 -0.83009 38087 ft 457 kts 291°
2026-05-01 09:58 61.23357 -0.94793 38074 ft 457 kts 291°
2026-05-01 09:58 61.26201 -1.06618 38073 ft 457 kts 291°
2026-05-01 09:59 61.29022 -1.18415 38066 ft 455 kts 291°
2026-05-01 09:59 61.31821 -1.30187 38061 ft 453 kts 291°
2026-05-01 10:00 61.34607 -1.41967 38069 ft 454 kts 290°
2026-05-01 10:00 61.37392 -1.53802 38067 ft 455 kts 290°
2026-05-01 10:01 61.40168 -1.65669 38070 ft 456 kts 290°
2026-05-01 10:01 61.42939 -1.77575 38063 ft 456 kts 290°
2026-05-01 10:02 61.45699 -1.89505 38063 ft 456 kts 290°
2026-05-01 10:02 61.48452 -2.01468 38059 ft 456 kts 290°
2026-05-01 10:03 61.51194 -2.13451 38072 ft 457 kts 290°
2026-05-01 10:03 61.53927 -2.25459 38055 ft 455 kts 290°
2026-05-01 10:04 61.56633 -2.37419 38052 ft 453 kts 290°
2026-05-01 10:04 61.59325 -2.49386 38051 ft 454 kts 290°
2026-05-01 10:05 61.62014 -2.61403 38053 ft 455 kts 290°
2026-05-01 10:05 61.64700 -2.73476 38056 ft 456 kts 290°
2026-05-01 10:06 61.67381 -2.85591 38044 ft 457 kts 290°
2026-05-01 10:06 61.70051 -2.97733 38040 ft 457 kts 289°
2026-05-01 10:07 61.72714 -3.09910 38040 ft 457 kts 289°
2026-05-01 10:07 61.75366 -3.22107 38046 ft 457 kts 289°
2026-05-01 10:08 61.79325 -3.40452 38048 ft 458 kts 289°
2026-05-01 10:09 61.81935 -3.52631 38049 ft 458 kts 289°
2026-05-01 10:09 61.84550 -3.64904 38046 ft 457 kts 289°
2026-05-01 10:10 61.87151 -3.77190 38073 ft 457 kts 289°
2026-05-01 10:10 61.91035 -3.95663 38046 ft 456 kts 288°
2026-05-01 10:11 61.93602 -4.07970 38050 ft 455 kts 288°
2026-05-01 10:11 61.96151 -4.20259 38046 ft 454 kts 288°
2026-05-01 10:12 61.98260 -4.30484 38030 ft 455 kts 288°
2026-05-01 10:13 62.02509 -4.51235 38036 ft 460 kts 288°
2026-05-01 10:13 62.05049 -4.63742 38044 ft 460 kts 288°
2026-05-01 10:14 62.08835 -4.82531 38039 ft 460 kts 288°
2026-05-01 10:14 62.11344 -4.95077 38030 ft 459 kts 288°
2026-05-01 10:15 62.13842 -5.07649 38069 ft 460 kts 288°
2026-05-01 10:15 62.16309 -5.20136 38033 ft 457 kts 287°
2026-05-01 10:16 62.18770 -5.32676 38011 ft 457 kts 287°
2026-05-01 10:17 62.22440 -5.51518 38011 ft 457 kts 287°
2026-05-01 10:17 62.26085 -5.70414 38009 ft 457 kts 287°
2026-05-01 10:18 62.29705 -5.89353 38002 ft 456 kts 287°
2026-05-01 10:19 62.32096 -6.01963 38000 ft 455 kts 287°
2026-05-01 10:19 62.34471 -6.14576 37999 ft 455 kts 287°
2026-05-01 10:20 62.38015 -6.33534 37999 ft 455 kts 286°
2026-05-01 10:20 62.40363 -6.46202 37987 ft 455 kts 286°
2026-05-01 10:21 62.43860 -6.65219 37986 ft 455 kts 286°
2026-05-01 10:22 62.47344 -6.84353 37994 ft 458 kts 286°
2026-05-01 10:23 62.50371 -7.01127 37987 ft 457 kts 285°
2026-05-01 10:23 62.53821 -7.20429 37979 ft 455 kts 285°
2026-05-01 10:24 62.58341 -7.46016 37958 ft 454 kts 285°
2026-05-01 10:25 62.62790 -7.71545 37957 ft 459 kts 285°
2026-05-01 10:26 62.65025 -7.84486 37960 ft 456 kts 285°
2026-05-01 10:27 62.69439 -8.10335 37937 ft 455 kts 285°
2026-05-01 10:28 62.72364 -8.27664 37937 ft 456 kts 285°
2026-05-01 10:28 62.75605 -8.47050 37927 ft 456 kts 285°
2026-05-01 10:29 62.78833 -8.66565 37927 ft 456 kts 284°
2026-05-01 10:30 62.83096 -8.92656 37923 ft 455 kts 284°
2026-05-01 10:31 62.87321 -9.18886 37911 ft 457 kts 284°
2026-05-01 10:32 62.90449 -9.38558 37893 ft 455 kts 284°
2026-05-01 10:33 62.94583 -9.64884 37889 ft 457 kts 284°
2026-05-01 10:34 62.97662 -9.84751 37888 ft 459 kts 284°
2026-05-01 10:34 62.99707 -9.98063 37888 ft 459 kts 284°
2026-05-01 10:35 63.02518 -10.18104 37872 ft 458 kts 282°
2026-05-01 10:35 63.04356 -10.31523 37871 ft 457 kts 282°
2026-05-01 10:36 63.07105 -10.51711 37882 ft 459 kts 282°
2026-05-01 10:37 63.08919 -10.65208 37877 ft 459 kts 282°
2026-05-01 10:37 63.11625 -10.85514 37867 ft 460 kts 282°
2026-05-01 10:38 63.13414 -10.99089 37870 ft 460 kts 282°
2026-05-01 10:38 63.15191 -11.12691 37877 ft 461 kts 282°
2026-05-01 10:39 63.16957 -11.26320 37873 ft 461 kts 282°
2026-05-01 10:39 63.18709 -11.39959 37863 ft 459 kts 282°
2026-05-01 10:40 63.20434 -11.53507 37854 ft 461 kts 282°
2026-05-01 10:40 63.22163 -11.67195 37856 ft 462 kts 282°
2026-05-01 10:41 63.23880 -11.80924 37857 ft 462 kts 281°
2026-05-01 10:42 63.26438 -12.01593 37859 ft 464 kts 281°
2026-05-01 10:42 63.28128 -12.15411 37861 ft 463 kts 281°
2026-05-01 10:43 63.29803 -12.29228 37854 ft 464 kts 282°
2026-05-01 10:43 63.31472 -12.43116 37859 ft 465 kts 281°
2026-05-01 10:44 63.33129 -12.57039 37858 ft 465 kts 281°
2026-05-01 10:44 63.34769 -12.70949 37860 ft 464 kts 281°
2026-05-01 10:45 63.36392 -12.84852 37857 ft 463 kts 281°
2026-05-01 10:45 63.38001 -12.98759 37857 ft 463 kts 281°
2026-05-01 10:46 63.39593 -13.12655 37849 ft 463 kts 281°
2026-05-01 10:46 63.41176 -13.26599 37856 ft 464 kts 281°
2026-05-01 10:47 63.42750 -13.40609 37878 ft 467 kts 281°
2026-05-01 10:47 63.44319 -13.54701 37856 ft 467 kts 281°
2026-05-01 10:48 63.45871 -13.68783 37852 ft 466 kts 281°
2026-05-01 10:48 63.47404 -13.82840 37850 ft 465 kts 281°
2026-05-01 10:49 63.48920 -13.96885 37860 ft 464 kts 281°
2026-05-01 10:49 63.50421 -14.10921 37859 ft 463 kts 281°
2026-05-01 10:50 63.51907 -14.24967 37859 ft 463 kts 281°
2026-05-01 10:50 63.53380 -14.39033 37860 ft 464 kts 281°
2026-05-01 10:51 63.54831 -14.53030 37865 ft 464 kts 281°
2026-05-01 10:51 63.56278 -14.67141 37871 ft 464 kts 281°
2026-05-01 10:52 63.57711 -14.81269 37875 ft 464 kts 281°
2026-05-01 10:52 63.59129 -14.95391 37859 ft 464 kts 281°
2026-05-01 10:53 63.60532 -15.09520 37864 ft 463 kts 280°
2026-05-01 10:53 63.61918 -15.23626 37862 ft 462 kts 280°
2026-05-01 10:54 63.63289 -15.37744 37868 ft 463 kts 280°
2026-05-01 10:54 63.64651 -15.51915 37871 ft 464 kts 280°
2026-05-01 10:55 63.66002 -15.66144 37868 ft 465 kts 280°
2026-05-01 10:55 63.67333 -15.80304 37871 ft 459 kts 280°
2026-05-01 10:56 63.68639 -15.94385 37868 ft 459 kts 280°
2026-05-01 10:56 63.69933 -16.08475 37867 ft 459 kts 279°
2026-05-01 10:57 63.71212 -16.22577 37864 ft 459 kts 279°
2026-05-01 10:57 63.72480 -16.36709 37876 ft 459 kts 279°
2026-05-01 10:58 63.73733 -16.50851 37877 ft 459 kts 279°
2026-05-01 10:58 63.74972 -16.65000 37877 ft 459 kts 279°
2026-05-01 10:59 63.76197 -16.79164 37892 ft 459 kts 279°
2026-05-01 10:59 63.77408 -16.93340 37892 ft 459 kts 279°
2026-05-01 11:00 63.78604 -17.07504 37903 ft 459 kts 279°
2026-05-01 11:00 63.79787 -17.21701 37904 ft 459 kts 279°
2026-05-01 11:01 63.80956 -17.35916 37910 ft 459 kts 279°
2026-05-01 11:01 63.82107 -17.50072 37910 ft 461 kts 279°
2026-05-01 11:02 63.83254 -17.64378 37916 ft 462 kts 279°
2026-05-01 11:02 63.84388 -17.78713 37927 ft 462 kts 278°
2026-05-01 11:03 63.85509 -17.93069 37926 ft 462 kts 278°
2026-05-01 11:03 63.86617 -18.07447 37951 ft 463 kts 278°
2026-05-01 11:04 63.87706 -18.21783 37949 ft 460 kts 278°
2026-05-01 11:04 63.88780 -18.36120 37939 ft 462 kts 278°
2026-05-01 11:05 63.89845 -18.50520 37954 ft 463 kts 278°
2026-05-01 11:05 63.90895 -18.64946 37968 ft 463 kts 278°
2026-05-01 11:06 63.91932 -18.79393 37978 ft 463 kts 278°
2026-05-01 11:06 63.92955 -18.93848 37980 ft 463 kts 278°
2026-05-01 11:07 63.94461 -19.15543 37996 ft 461 kts 278°
2026-05-01 11:07 63.95436 -19.29841 38004 ft 455 kts 278°
2026-05-01 11:08 63.96392 -19.44097 38000 ft 456 kts 278°
2026-05-01 11:09 63.97807 -19.65592 38005 ft 459 kts 277°
2026-05-01 11:09 63.98735 -19.79975 38011 ft 459 kts 277°
2026-05-01 11:10 64.00059 -20.01581 38014 ft 458 kts 273°
2026-05-01 11:10 64.00548 -20.16133 38026 ft 462 kts 274°
2026-05-01 11:11 64.01030 -20.30733 38029 ft 462 kts 274°
2026-05-01 11:11 64.01492 -20.45318 38029 ft 461 kts 274°
2026-05-01 11:12 64.01943 -20.59892 38032 ft 461 kts 274°
2026-05-01 11:12 64.02373 -20.74361 38036 ft 460 kts 274°
2026-05-01 11:13 64.02793 -20.88921 38028 ft 460 kts 274°
2026-05-01 11:13 64.03197 -21.03472 38027 ft 459 kts 273°
2026-05-01 11:14 64.03586 -21.17982 38033 ft 458 kts 273°
2026-05-01 11:14 64.03900 -21.30136 38036 ft 458 kts 273°
2026-05-01 11:15 64.04262 -21.44660 38044 ft 460 kts 273°
2026-05-01 11:15 64.04611 -21.59228 38066 ft 459 kts 273°
2026-05-01 11:16 64.04944 -21.73761 38074 ft 458 kts 273°
2026-05-01 11:16 64.05261 -21.88193 38081 ft 458 kts 273°
2026-05-01 11:17 64.05565 -22.02739 38081 ft 459 kts 272°
2026-05-01 11:17 64.05855 -22.17297 38080 ft 459 kts 272°
2026-05-01 11:18 64.06131 -22.31860 38080 ft 459 kts 272°
2026-05-01 11:18 64.06392 -22.46429 38079 ft 459 kts 272°
2026-05-01 11:19 64.06638 -22.61002 38072 ft 459 kts 272°
2026-05-01 11:19 64.06870 -22.75569 38072 ft 459 kts 272°
2026-05-01 11:20 64.07087 -22.90142 38074 ft 459 kts 272°
2026-05-01 11:20 64.07290 -23.04708 38080 ft 459 kts 272°
2026-05-01 11:21 64.07478 -23.19272 38078 ft 459 kts 272°
2026-05-01 11:21 64.07651 -23.33853 38085 ft 460 kts 272°
2026-05-01 11:22 64.07810 -23.48461 38094 ft 459 kts 272°
2026-05-01 11:22 64.07956 -23.63081 38097 ft 461 kts 271°
2026-05-01 11:23 64.08086 -23.77762 38104 ft 463 kts 271°
2026-05-01 11:23 64.08202 -23.92474 38108 ft 463 kts 271°
2026-05-01 11:24 64.08303 -24.07155 38113 ft 462 kts 271°
2026-05-01 11:25 64.08426 -24.29132 38110 ft 460 kts 271°
2026-05-01 11:25 64.08516 -24.51031 38113 ft 459 kts 271°
2026-05-01 11:26 64.08573 -24.72941 38111 ft 460 kts 271°
2026-05-01 11:27 64.08593 -24.87559 38115 ft 460 kts 270°
2026-05-01 11:27 64.08598 -25.02183 38122 ft 460 kts 270°
2026-05-01 11:28 64.08589 -25.16823 38126 ft 461 kts 270°
2026-05-01 11:28 64.08564 -25.31482 38125 ft 460 kts 270°
2026-05-01 11:29 64.08501 -25.53406 38131 ft 459 kts 270°
2026-05-01 11:30 64.08404 -25.75295 38142 ft 459 kts 270°
2026-05-01 11:30 64.08321 -25.89899 38143 ft 460 kts 270°
2026-05-01 11:31 64.08224 -26.04438 38118 ft 461 kts 270°
2026-05-01 11:31 64.08112 -26.19084 38144 ft 461 kts 270°
2026-05-01 11:32 64.07985 -26.33767 38150 ft 462 kts 270°
2026-05-01 11:32 64.07842 -26.48471 38154 ft 463 kts 269°
2026-05-01 11:33 64.07685 -26.63165 38154 ft 462 kts 269°
2026-05-01 11:33 64.07514 -26.77809 38157 ft 461 kts 269°
2026-05-01 11:34 64.07328 -26.92419 38140 ft 459 kts 269°
2026-05-01 11:34 64.07128 -27.07014 38158 ft 460 kts 269°
2026-05-01 11:35 64.06913 -27.21629 38163 ft 460 kts 269°
2026-05-01 11:35 64.06683 -27.36237 38164 ft 460 kts 269°
2026-05-01 11:36 64.06439 -27.50844 38170 ft 460 kts 269°
2026-05-01 11:36 64.06180 -27.65448 38171 ft 460 kts 269°
2026-05-01 11:37 64.05906 -27.80050 38152 ft 460 kts 269°
2026-05-01 11:37 64.05618 -27.94637 38165 ft 460 kts 269°
2026-05-01 11:38 64.05315 -28.09254 38167 ft 461 kts 268°
2026-05-01 11:38 64.04996 -28.23882 38172 ft 462 kts 268°
2026-05-01 11:39 64.04665 -28.38424 38175 ft 462 kts 268°
2026-05-01 11:39 64.04315 -28.53171 38180 ft 462 kts 268°
2026-05-01 11:40 64.03953 -28.67731 38173 ft 462 kts 268°
2026-05-01 11:40 64.03577 -28.82339 38214 ft 460 kts 268°
2026-05-01 11:41 64.03184 -28.96995 38177 ft 459 kts 268°
2026-05-01 11:41 64.02780 -29.11513 38175 ft 459 kts 268°
2026-05-01 11:42 64.02361 -29.26039 38174 ft 459 kts 268°
2026-05-01 11:42 64.01931 -29.40461 38175 ft 459 kts 268°
2026-05-01 11:43 64.01483 -29.54969 38182 ft 458 kts 268°
2026-05-01 11:43 64.01022 -29.69464 38181 ft 458 kts 268°
2026-05-01 11:44 64.00303 -29.91181 38181 ft 458 kts 267°
2026-05-01 11:44 64.00197 -30.05639 38192 ft 456 kts 275°
2026-05-01 11:45 64.00678 -30.20097 38194 ft 458 kts 275°
2026-05-01 11:45 64.01153 -30.34580 38194 ft 458 kts 275°
2026-05-01 11:46 64.01608 -30.49065 38218 ft 458 kts 275°
2026-05-01 11:46 64.02052 -30.63536 38191 ft 456 kts 275°
2026-05-01 11:47 64.02476 -30.77921 38187 ft 454 kts 275°
2026-05-01 11:47 64.02887 -30.92304 38187 ft 455 kts 275°
2026-05-01 11:48 64.03285 -31.06718 38192 ft 456 kts 275°
2026-05-01 11:48 64.03668 -31.21162 38194 ft 456 kts 275°
2026-05-01 11:49 64.04038 -31.35632 38153 ft 457 kts 274°
2026-05-01 11:49 64.04394 -31.50096 38182 ft 456 kts 274°
2026-05-01 11:50 64.04735 -31.64564 38182 ft 456 kts 274°
2026-05-01 11:50 64.05061 -31.79027 38182 ft 456 kts 274°
2026-05-01 11:51 64.05373 -31.93496 38188 ft 456 kts 274°
2026-05-01 11:51 64.05670 -32.07940 38186 ft 455 kts 274°
2026-05-01 11:52 64.05952 -32.22340 38183 ft 453 kts 274°
2026-05-01 11:52 64.06219 -32.36707 38184 ft 452 kts 274°
2026-05-01 11:53 64.06470 -32.50991 38194 ft 454 kts 274°
2026-05-01 11:53 64.06712 -32.65529 38194 ft 456 kts 274°
2026-05-01 11:54 64.06936 -32.79918 38186 ft 456 kts 273°
2026-05-01 11:54 64.07148 -32.94387 38185 ft 455 kts 273°
2026-05-01 11:55 64.07344 -33.08832 38176 ft 454 kts 273°
2026-05-01 11:55 64.07527 -33.23248 38174 ft 454 kts 273°
2026-05-01 11:56 64.07694 -33.37634 38177 ft 453 kts 273°
2026-05-01 11:56 64.07848 -33.52055 38177 ft 455 kts 273°
2026-05-01 11:57 64.07965 -33.64105 38178 ft 456 kts 272°
2026-05-01 11:57 64.08113 -33.81035 38179 ft 455 kts 272°
2026-05-01 11:58 64.08224 -33.95491 38182 ft 455 kts 272°
2026-05-01 11:59 64.08363 -34.17138 38176 ft 454 kts 272°
2026-05-01 11:59 64.08426 -34.29116 38175 ft 453 kts 272°
2026-05-01 12:00 64.08515 -34.50707 38177 ft 452 kts 272°
2026-05-01 12:01 64.08572 -34.72285 38183 ft 452 kts 272°
2026-05-01 12:01 64.08592 -34.86667 38182 ft 453 kts 272°
2026-05-01 12:02 64.08599 -35.01067 38181 ft 453 kts 271°
2026-05-01 12:02 64.08590 -35.15491 38181 ft 454 kts 271°
2026-05-01 12:03 64.08568 -35.29926 38178 ft 454 kts 271°
2026-05-01 12:03 64.08531 -35.44387 38179 ft 456 kts 271°
2026-05-01 12:04 64.08480 -35.58883 38187 ft 456 kts 271°
2026-05-01 12:04 64.08414 -35.73362 38187 ft 455 kts 271°
2026-05-01 12:05 64.08334 -35.87815 38180 ft 454 kts 271°
2026-05-01 12:05 64.08188 -36.09423 38191 ft 452 kts 270°
2026-05-01 12:06 64.08073 -36.23775 38179 ft 452 kts 270°
2026-05-01 12:06 64.07943 -36.38198 38184 ft 455 kts 270°
2026-05-01 12:07 64.07800 -36.52558 38187 ft 455 kts 270°
2026-05-01 12:07 64.07641 -36.67022 38190 ft 455 kts 270°
2026-05-01 12:08 64.07468 -36.81485 38191 ft 455 kts 270°
2026-05-01 12:08 64.07281 -36.95946 38191 ft 455 kts 270°
2026-05-01 12:09 64.07079 -37.10415 38192 ft 455 kts 269°
2026-05-01 12:09 64.06863 -37.24864 38182 ft 455 kts 269°
2026-05-01 12:10 64.06512 -37.46533 38188 ft 453 kts 269°
2026-05-01 12:11 64.06132 -37.68064 38186 ft 452 kts 269°
2026-05-01 12:11 64.05861 -37.82387 38182 ft 451 kts 269°
2026-05-01 12:12 64.05576 -37.96690 38182 ft 451 kts 269°
2026-05-01 12:12 64.05278 -38.10987 38190 ft 451 kts 268°
2026-05-01 12:13 64.04963 -38.25370 38186 ft 455 kts 268°
2026-05-01 12:13 64.04633 -38.39807 38193 ft 455 kts 268°
2026-05-01 12:14 64.04289 -38.54239 38190 ft 455 kts 268°
2026-05-01 12:14 64.03932 -38.68563 38195 ft 455 kts 268°
2026-05-01 12:15 64.03560 -38.82952 38190 ft 452 kts 268°
2026-05-01 12:15 64.03177 -38.97252 38187 ft 451 kts 268°
2026-05-01 12:16 64.02780 -39.11532 38186 ft 452 kts 268°
2026-05-01 12:16 64.02366 -39.25884 38196 ft 454 kts 267°
2026-05-01 12:17 64.01937 -39.40269 38194 ft 455 kts 267°
2026-05-01 12:17 64.01493 -39.54649 38195 ft 455 kts 267°
2026-05-01 12:18 64.01036 -39.69025 38198 ft 455 kts 267°
2026-05-01 12:18 64.00564 -39.83394 38198 ft 455 kts 267°
2026-05-01 12:19 64.00007 -39.97740 38170 ft 455 kts 261°
2026-05-01 12:19 63.98217 -40.11603 38217 ft 459 kts 253°
2026-05-01 12:20 63.96100 -40.25303 38199 ft 458 kts 253°
2026-05-01 12:20 63.93974 -40.38918 38197 ft 456 kts 253°
2026-05-01 12:21 63.91842 -40.52502 38207 ft 457 kts 253°
2026-05-01 12:21 63.89687 -40.66105 38204 ft 458 kts 253°
2026-05-01 12:22 63.87530 -40.79629 38209 ft 457 kts 253°
2026-05-01 12:22 63.85379 -40.93010 38205 ft 449 kts 253°
2026-05-01 12:23 63.83230 -41.06302 38208 ft 450 kts 252°
2026-05-01 12:23 63.81054 -41.19643 38213 ft 453 kts 252°
2026-05-01 12:24 63.78861 -41.33008 38216 ft 453 kts 252°
2026-05-01 12:24 63.76657 -41.46329 38212 ft 452 kts 252°
2026-05-01 12:25 63.73329 -41.66285 38195 ft 456 kts 252°
2026-05-01 12:26 63.71077 -41.79658 38196 ft 455 kts 252°
2026-05-01 12:26 63.67684 -41.99642 38133 ft 455 kts 252°
2026-05-01 12:27 63.64266 -42.19563 38130 ft 454 kts 251°
2026-05-01 12:28 63.60812 -42.39483 38119 ft 459 kts 251°
2026-05-01 12:29 63.57324 -42.59385 38118 ft 456 kts 251°
2026-05-01 12:29 63.53805 -42.79265 38094 ft 458 kts 251°
2026-05-01 12:30 63.50249 -42.99152 38109 ft 459 kts 251°
2026-05-01 12:31 63.47873 -43.12322 38112 ft 460 kts 250°
2026-05-01 12:31 63.45469 -43.25557 38123 ft 459 kts 250°
2026-05-01 12:32 63.43062 -43.38725 38128 ft 457 kts 250°
2026-05-01 12:32 63.39441 -43.58365 38145 ft 456 kts 250°
2026-05-01 12:33 63.37010 -43.71445 38170 ft 457 kts 250°
2026-05-01 12:33 63.34579 -43.84422 38182 ft 448 kts 250°
2026-05-01 12:34 63.32177 -43.97191 38178 ft 447 kts 250°
2026-05-01 12:34 63.29753 -44.09976 38192 ft 450 kts 250°
2026-05-01 12:35 63.27307 -44.22797 38193 ft 451 kts 250°
2026-05-01 12:35 63.24845 -44.35620 38204 ft 451 kts 250°
2026-05-01 12:36 63.22379 -44.48382 38192 ft 448 kts 250°
2026-05-01 12:36 63.19901 -44.61133 38226 ft 453 kts 249°
2026-05-01 12:37 63.17395 -44.73932 38229 ft 452 kts 249°
2026-05-01 12:37 63.14891 -44.86653 38221 ft 450 kts 249°
2026-05-01 12:38 63.12379 -44.99328 38232 ft 449 kts 249°
2026-05-01 12:38 63.09859 -45.11970 38228 ft 450 kts 249°
2026-05-01 12:39 63.07324 -45.24604 38224 ft 450 kts 249°
2026-05-01 12:39 63.04779 -45.37211 38242 ft 450 kts 249°
2026-05-01 12:40 63.02222 -45.49801 38248 ft 450 kts 249°
2026-05-01 12:40 62.99669 -45.62296 38249 ft 451 kts 249°
2026-05-01 12:41 62.97087 -45.74853 38258 ft 451 kts 249°
2026-05-01 12:41 62.94493 -45.87394 38257 ft 451 kts 248°
2026-05-01 12:42 62.91891 -45.99898 38251 ft 450 kts 248°
2026-05-01 12:42 62.89280 -46.12374 38259 ft 450 kts 248°
2026-05-01 12:43 62.86658 -46.24820 38248 ft 450 kts 248°
2026-05-01 12:43 62.84026 -46.37242 38257 ft 450 kts 248°
2026-05-01 12:44 62.81384 -46.49640 38259 ft 450 kts 248°
2026-05-01 12:45 62.76074 -46.74333 38259 ft 447 kts 248°
2026-05-01 12:45 62.73411 -46.86612 38264 ft 448 kts 248°
2026-05-01 12:46 62.70729 -46.98901 38261 ft 449 kts 248°
2026-05-01 12:46 62.68031 -47.11196 38265 ft 450 kts 247°
2026-05-01 12:47 62.65317 -47.23491 38271 ft 451 kts 247°
2026-05-01 12:47 62.63053 -47.33693 38263 ft 450 kts 247°
2026-05-01 12:48 62.60333 -47.45884 38264 ft 448 kts 247°
2026-05-01 12:48 62.57611 -47.58017 38261 ft 446 kts 247°
2026-05-01 12:49 62.54887 -47.70094 38267 ft 446 kts 247°
2026-05-01 12:49 62.52143 -47.82187 38263 ft 448 kts 247°
2026-05-01 12:50 62.49376 -47.94311 38267 ft 450 kts 246°
2026-05-01 12:50 62.46607 -48.06375 38270 ft 446 kts 246°
2026-05-01 12:51 62.43847 -48.18338 38267 ft 445 kts 246°
2026-05-01 12:52 62.39681 -48.36263 38273 ft 446 kts 246°
2026-05-01 12:52 62.35488 -48.54160 38279 ft 446 kts 246°
2026-05-01 12:53 62.31276 -48.71986 38280 ft 443 kts 246°
2026-05-01 12:54 62.28473 -48.83771 38286 ft 443 kts 246°
2026-05-01 12:54 62.24254 -49.01389 38285 ft 443 kts 246°
2026-05-01 12:55 62.20025 -49.18907 38288 ft 444 kts 245°
2026-05-01 12:56 62.17173 -49.30640 38278 ft 444 kts 245°
2026-05-01 12:56 62.14317 -49.42326 38296 ft 442 kts 245°
2026-05-01 12:57 62.11460 -49.53960 38292 ft 442 kts 245°
2026-05-01 12:57 62.07160 -49.71347 38291 ft 441 kts 245°
2026-05-01 12:58 62.04284 -49.82902 38295 ft 441 kts 245°
2026-05-01 12:59 61.99949 -50.00194 38295 ft 441 kts 243°
2026-05-01 12:59 61.95419 -50.17288 38296 ft 444 kts 243°
2026-05-01 13:00 61.90832 -50.34387 38299 ft 444 kts 243°
2026-05-01 13:01 61.86251 -50.51387 38298 ft 442 kts 243°
2026-05-01 13:02 61.81662 -50.68285 38288 ft 441 kts 243°
2026-05-01 13:07 61.47333 -51.90803 38290 ft 443 kts 241°
2026-05-01 13:08 61.44141 -52.01864 38299 ft 445 kts 241°
2026-05-01 13:08 61.40955 -52.12851 38305 ft 445 kts 241°
2026-05-01 13:09 61.37742 -52.23882 38302 ft 445 kts 241°
2026-05-01 13:09 61.34520 -52.34888 38304 ft 445 kts 240°
2026-05-01 13:10 61.31290 -52.45869 38307 ft 445 kts 240°
2026-05-01 13:10 61.28047 -52.56839 38306 ft 444 kts 240°
2026-05-01 13:11 61.24808 -52.67745 38301 ft 443 kts 240°
2026-05-01 13:11 61.21567 -52.78608 38299 ft 442 kts 240°
2026-05-01 13:12 61.18315 -52.89453 38301 ft 443 kts 240°
2026-05-01 13:12 61.15058 -53.00267 38301 ft 443 kts 239°
2026-05-01 13:13 61.11783 -53.11089 38298 ft 445 kts 239°
2026-05-01 13:13 61.08488 -53.21922 38302 ft 445 kts 239°
2026-05-01 13:14 61.05181 -53.32746 38305 ft 446 kts 239°
2026-05-01 13:14 61.01865 -53.43548 38306 ft 446 kts 239°
2026-05-01 13:15 60.98541 -53.54327 38309 ft 446 kts 239°
2026-05-01 13:15 60.95210 -53.65081 38295 ft 445 kts 238°
2026-05-01 13:16 60.91863 -53.75828 38294 ft 447 kts 238°
2026-05-01 13:16 60.88501 -53.86579 38293 ft 447 kts 238°
2026-05-01 13:17 60.81777 -54.07930 38291 ft 444 kts 238°
2026-05-01 13:18 60.76730 -54.23828 38287 ft 445 kts 237°
2026-05-01 13:18 60.73338 -54.34448 38300 ft 447 kts 237°
2026-05-01 13:19 60.69958 -54.44986 38300 ft 445 kts 237°
2026-05-01 13:20 60.64860 -54.60788 38298 ft 444 kts 237°
2026-05-01 13:20 60.64263 -54.62634 38304 ft 444 kts 237°